This is the latest recevied weather packets stored in our database for station/object KQ4DLB-13. If no packets are shown the sender has not sent any weather packets the latest 10 day(s).
| Time | Temp. | Humidity | Pressure | Rain* | Wind** | Luminosity | Snow |
|---|---|---|---|---|---|---|---|
| 1777427102 | 17.78° C | 92% | 989.1 hPa | 0 mm | - | - | - |
| 1777426802 | 18.33° C | 88% | 988.4 hPa | 0 mm | - | - | - |
| 1777426502 | 18.33° C | 86% | 988 hPa | 0 mm | - | - | - |
| 1777426202 | 18.33° C | 85% | 987.9 hPa | 0 mm | - | - | - |
| 1777425902 | 18.33° C | 86% | 987.7 hPa | 0 mm | - | - | - |
| 1777425602 | 18.33° C | 89% | 987.2 hPa | 0 mm | - | - | - |
| 1777425302 | 18.33° C | 92% | 986.4 hPa | 0 mm | - | - | - |
| 1777425003 | 18.33° C | 93% | 986.1 hPa | 0.25 mm | - | - | - |
| 1777424702 | 18.33° C | 92% | 986.8 hPa | 0.25 mm | - | - | - |
| 1777424402 | 18.89° C | 91% | 989.1 hPa | 0 mm | - | - | - |
| 1777424103 | 19.44° C | 91% | 990 hPa | 0 mm | - | - | - |
| 1777423803 | 19.44° C | 90% | 991.1 hPa | 0.25 mm | - | - | - |
| 1777423502 | 20° C | 90% | 992.1 hPa | 0.25 mm | - | - | - |
| 1777423202 | 20° C | 92% | 992.5 hPa | 0.25 mm | - | - | - |
| 1777422902 | 19.44° C | 93% | 992.1 hPa | 0.51 mm | - | - | - |
| 1777422602 | 19.44° C | 92% | 991.7 hPa | 0.76 mm | - | - | - |
| 1777422302 | 19.44° C | 89% | 991.6 hPa | 0.76 mm | - | - | - |
| 1777422002 | 19.44° C | 88% | 991.7 hPa | 0.51 mm | - | - | - |
| 1777421702 | 20° C | 89% | 991.8 hPa | 0.51 mm | - | - | - |
| 1777421402 | 20.56° C | 87% | 991.6 hPa | 0.25 mm | - | - | - |
| 1777421102 | 21.11° C | 88% | 991.6 hPa | 0.25 mm | - | - | - |
| 1777420802 | 21.11° C | 91% | 991.6 hPa | 0.25 mm | - | - | - |
| 1777420503 | 21.11° C | 91% | 991.6 hPa | 0.25 mm | - | - | - |
| 1777420202 | 21.11° C | 91% | 991.3 hPa | 0.25 mm | - | - | - |
| 1777419902 | 21.11° C | 91% | 990.9 hPa | 0.51 mm | - | - | - |
* Rain latest hour (hover to see other rain measurements)
** Current wind speed in m/s (hover to see current wind gust speed)